FW2619 Weather Reports


time (UTC)temp
C
wind
direction
speed
KPH
gust
KPH
rain 1hr
cm
rain 24hr
cm
rain mn
cm
humidity
%
barometer
mb
20260906221407 34 64 0.0 0.0 0.00 0.00 0.00 31 1004.2
20260906220905 34 68 0.0 0.0 0.00 0.00 0.00 30 1004.2
20260906220405 34 94 0.0 1.6 0.00 0.00 0.00 31 1004.3
20260906214905 34 57 0.0 0.0 0.00 0.00 0.00 31 1004.5
20260906213907 33 74 0.0 0.0 0.00 0.00 0.00 31 1004.6
20260906213406 34 76 0.0 8.0 0.00 0.00 0.00 31 1004.7
20260906211907 33 5 0.0 1.6 0.00 0.00 0.00 33 1004.9
20260906211405 32 57 0.0 0.0 0.00 0.00 0.00 33 1004.9
20260906210908 32 63 0.0 0.0 0.00 0.00 0.00 32 1005.0
20260906210406 32 57 0.0 3.2 0.00 0.00 0.00 32 1005.1
20260906204906 33 71 0.0 3.2 0.00 0.00 0.00 32 1005.4
20260906204405 32 73 0.0 0.0 0.00 0.00 0.00 33 1005.5
20260906203407 32 31 0.0 11.3 0.00 0.00 0.00 33 1005.6
20260906201906 32 350 3.2 12.9 0.00 0.00 0.00 33 1005.8
20260906201409 32 64 0.0 0.0 0.00 0.00 0.00 33 1005.9
20260906200908 32 70 0.0 1.6 0.00 0.00 0.00 32 1006.0
20260906200407 32 71 0.0 1.6 0.00 0.00 0.00 34 1006.1
20260906194404 31 17 0.0 0.0 0.00 0.00 0.00 33 1006.4
20260906193406 31 36 0.0 0.0 0.00 0.00 0.00 33 1006.7
20260906191905 31 64 0.0 0.0 0.00 0.00 0.00 36 1007.0
20260906190906 30 42 0.0 1.6 0.00 0.00 0.00 38 1007.1
20260906190405 30 355 0.0 8.0 0.00 0.00 0.00 39 1007.1
20260906184904 30 357 0.0 8.0 0.00 0.00 0.00 40 1007.6
20260906183404 30 355 0.0 0.0 0.00 0.00 0.00 39 1007.8
20260906181907 29 329 0.0 0.0 0.00 0.00 0.00 41 1008.2
20260906181404 28 329 0.0 0.0 0.00 0.00 0.00 40 1008.4
20260906180406 28 329 0.0 0.0 0.00 0.00 0.00 43 1008.5
20260906174906 28 329 0.0 0.0 0.00 0.00 0.00 39 1008.8
20260906174409 28 329 0.0 0.0 0.00 0.00 0.00 41 1009.0
20260906173907 28 329 0.0 0.0 0.00 0.00 0.00 40 1009.1
20260906171408 26 329 0.0 0.0 0.00 0.00 0.00 44 1009.7
20260906161904 23 329 0.0 0.0 0.00 0.00 0.00 53 1010.2
20260906160907 22 329 0.0 0.0 0.00 0.00 0.00 57 1010.2
20260906160406 22 329 0.0 0.0 0.00 0.00 0.00 57 1010.2
20260906154907 22 329 0.0 0.0 0.00 0.00 0.00 59 1010.3
20260906154405 21 329 0.0 0.0 0.00 0.00 0.00 60 1010.2
20260906153909 21 329 0.0 0.0 0.00 0.00 0.00 60 1010.3
20260906153408 21 329 0.0 0.0 0.00 0.00 0.00 59 1010.3
20260906151905 21 329 0.0 0.0 0.00 0.00 0.00 58 1010.5
20260906151408 20 329 0.0 0.0 0.00 0.00 0.00 60 1010.5
20260906150406 20 329 0.0 0.0 0.00 0.00 0.00 61 1010.6
20260906144405 18 329 0.0 0.0 0.00 0.00 0.00 67 1010.5
20260906143908 18 329 0.0 0.0 0.00 0.00 0.00 69 1010.6
20260906143408 18 329 0.0 0.0 0.00 0.00 0.00 69 1010.5
20260906141406 17 329 0.0 0.0 0.00 0.00 0.00 75 1010.6
20260906140905 16 329 0.0 0.0 0.00 0.00 0.00 76 1010.7
20260906134905 15 329 0.0 0.0 0.00 0.00 0.00 83 1010.7
20260906134408 15 329 0.0 0.0 0.00 0.00 0.00 84 1010.8
20260906133907 15 329 0.0 0.0 0.00 0.00 0.00 84 1010.8
20260906133406 14 329 0.0 0.0 0.00 0.00 0.00 84 1010.8
20260906131908 14 329 0.0 0.0 0.00 0.00 0.00 84 1010.7
20260906130905 14 329 0.0 0.0 0.00 0.00 0.00 83 1010.5
20260906130404 14 325 0.0 0.0 0.00 0.00 0.00 83 1010.4
20260906124904 14 296 0.0 0.0 0.00 0.00 0.00 82 1010.2
20260906124407 14 296 0.0 0.0 0.00 0.00 0.00 82 1010.1
20260906123906 14 296 0.0 0.0 0.00 0.00 0.00 82 1010.1
20260906123405 14 296 0.0 0.0 0.00 0.00 0.00 81 1010.1
20260906121906 15 296 0.0 0.0 0.00 0.00 0.00 81 1010.2
20260906121404 15 296 0.0 0.0 0.00 0.00 0.00 81 1010.2
20260906120904 15 296 0.0 0.0 0.00 0.00 0.00 80 1010.1
20260906120408 15 296 0.0 0.0 0.00 0.00 0.00 80 1010.1
20260906114904 15 296 0.0 0.0 0.00 0.00 0.00 80 1010.3
20260906114406 15 296 0.0 0.0 0.00 0.00 0.00 79 1010.2
20260906113906 15 296 0.0 0.0 0.00 0.00 0.00 79 1010.3
20260906113404 15 296 0.0 0.0 0.00 0.00 0.00 78 1010.3
20260906111906 15 296 0.0 0.0 0.00 0.00 0.00 78 1010.0
20260906111404 15 296 0.0 0.0 0.00 0.00 0.00 78 1010.0
20260906110908 15 296 0.0 0.0 0.00 0.00 0.00 78 1010.0
20260906110407 15 296 0.0 0.0 0.00 0.00 0.00 77 1009.8
20260906104908 15 296 0.0 0.0 0.00 0.00 0.00 75 1009.6
20260906104407 16 296 0.0 0.0 0.00 0.00 0.00 75 1009.6
20260906103905 16 296 0.0 0.0 0.00 0.00 0.00 75 1009.6
20260906103404 16 296 0.0 0.0 0.00 0.00 0.00 75 1009.6
20260906101905 16 296 0.0 0.0 0.00 0.00 0.00 73 1009.5
20260906100907 16 296 0.0 0.0 0.00 0.00 0.00 73 1009.3
20260906100407 16 296 0.0 0.0 0.00 0.00 0.00 72 1009.3
20260906094907 16 296 0.0 0.0 0.00 0.00 0.00 71 1009.4
20260906094406 16 296 0.0 0.0 0.00 0.00 0.00 71 1009.4
20260906093904 17 296 0.0 0.0 0.00 0.00 0.00 71 1009.4
20260906093403 17 296 0.0 0.0 0.00 0.00 0.00 71 1009.5
20260906091904 17 296 0.0 0.0 0.00 0.00 0.00 71 1009.3
20260906091407 17 296 0.0 0.0 0.00 0.00 0.00 71 1009.3
20260906090404 17 296 0.0 0.0 0.00 0.00 0.00 71 1009.2
20260906084904 17 296 0.0 0.0 0.00 0.00 0.00 71 1009.2
20260906084407 17 296 0.0 0.0 0.00 0.00 0.00 71 1009.1
20260906083906 17 296 0.0 0.0 0.00 0.00 0.00 70 1009.1
20260906083405 17 296 0.0 0.0 0.00 0.00 0.00 70 1008.9
20260906081907 17 296 0.0 0.0 0.00 0.00 0.00 68 1009.1
20260906080909 17 296 0.0 0.0 0.00 0.00 0.00 68 1009.2
20260906080409 18 296 0.0 0.0 0.00 0.00 0.00 67 1009.2
20260906074905 18 296 0.0 0.0 0.00 0.00 0.00 65 1009.0
20260906074408 18 296 0.0 0.0 0.00 0.00 0.00 63 1009.0
20260906073907 18 296 0.0 0.0 0.00 0.00 0.00 63 1008.9
20260906073406 19 296 0.0 0.0 0.00 0.00 0.00 62 1008.9
20260906071905 20 296 0.0 0.0 0.00 0.00 0.00 59 1008.9
20260906071404 20 296 0.0 0.0 0.00 0.00 0.00 58 1008.9
20260906070908 20 296 0.0 0.0 0.00 0.00 0.00 58 1008.9
20260906070405 20 296 0.0 0.0 0.00 0.00 0.00 58 1008.8
20260906064907 20 296 0.0 0.0 0.00 0.00 0.00 56 1008.8
20260906064405 20 296 0.0 1.6 0.00 0.00 0.00 56 1008.9
20260906063909 20 296 0.0 1.6 0.00 0.00 0.00 56 1008.9
20260906063408 20 296 0.0 0.0 0.00 0.00 0.00 55 1008.9
20260906061905 21 296 0.0 0.0 0.00 0.00 0.00 54 1009.1
20260906061407 21 296 0.0 0.0 0.00 0.00 0.00 53 1009.2
20260906060906 21 296 0.0 0.0 0.00 0.00 0.00 54 1009.4
20260906060408 21 296 0.0 0.0 0.00 0.00 0.00 53 1009.5
20260906054904 22 296 0.0 0.0 0.00 0.00 0.00 50 1009.7
20260906054408 22 296 0.0 0.0 0.00 0.00 0.00 50 1009.6
20260906053906 22 296 0.0 0.0 0.00 0.00 0.00 48 1009.4
20260906053405 23 296 0.0 0.0 0.00 0.00 0.00 47 1009.5
20260906051906 23 296 0.0 0.0 0.00 0.00 0.00 44 1009.5
20260906051405 23 296 0.0 0.0 0.00 0.00 0.00 44 1009.3
20260906050908 23 296 0.0 0.0 0.00 0.00 0.00 43 1009.3
20260906050407 23 296 0.0 1.6 0.00 0.00 0.00 43 1009.4
20260906044908 23 263 0.0 0.0 0.00 0.00 0.00 42 1009.5
20260906043905 23 261 0.0 0.0 0.00 0.00 0.00 44 1009.8
20260906043404 23 256 0.0 0.0 0.00 0.00 0.00 44 1009.8
20260906041904 23 169 0.0 0.0 0.00 0.00 0.00 46 1009.3
20260906041407 22 169 0.0 0.0 0.00 0.00 0.00 46 1009.1
20260906040906 22 169 0.0 0.0 0.00 0.00 0.00 47 1009.1
20260906034404 21 5 0.0 0.0 0.00 0.00 0.00 52 1008.0
20260906033904 21 5 0.0 0.0 0.00 0.00 0.00 53 1007.9
20260906033407 21 5 0.0 0.0 0.00 0.00 0.00 51 1007.8
20260906031908 22 5 0.0 0.0 0.00 0.00 0.00 50 1007.8
20260906031406 22 5 0.0 0.0 0.00 0.00 0.00 50 1007.7
20260906030905 22 5 0.0 0.0 0.00 0.00 0.00 49 1007.6
20260906030404 22 5 0.0 0.0 0.00 0.00 0.00 49 1007.4
20260906024905 23 5 0.0 0.0 0.00 0.00 0.00 49 1007.0
20260906024404 23 5 0.0 0.0 0.00 0.00 0.00 47 1007.0
20260906023907 23 5 0.0 0.0 0.00 0.00 0.00 46 1007.0
20260906023406 24 5 0.0 0.0 0.00 0.00 0.00 44 1007.0
20260906021907 25 5 0.0 0.0 0.00 0.00 0.00 40 1007.1
20260906021406 25 5 0.0 0.0 0.00 0.00 0.00 39 1007.1
20260906014406 26 5 0.0 0.0 0.00 0.00 0.00 36 1006.5
20260906013905 26 5 0.0 0.0 0.00 0.00 0.00 37 1006.3
20260906013404 26 5 0.0 0.0 0.00 0.00 0.00 38 1006.1
20260906011905 28 332 0.0 0.0 0.00 0.00 0.00 37 1005.9
20260906011404 28 332 0.0 0.0 0.00 0.00 0.00 35 1005.8
20260906010907 29 332 0.0 0.0 0.00 0.00 0.00 33 1005.9
20260906010407 30 332 0.0 0.0 0.00 0.00 0.00 32 1005.9
20260906004908 31 332 0.0 0.0 0.00 0.00 0.00 30 1006.1
20260906004407 31 332 0.0 0.0 0.00 0.00 0.00 28 1006.1
20260906003405 32 332 0.0 0.0 0.00 0.00 0.00 27 1006.1
20260906001906 32 332 0.0 0.0 0.00 0.00 0.00 25 1006.0
20260906001404 32 332 0.0 0.0 0.00 0.00 0.00 24 1006.0
20260906000904 33 332 0.0 0.0 0.00 0.00 0.00 23 1005.9
20260906000407 33 333 0.0 0.0 0.00 0.00 0.00 23 1005.9
20260905234904 33 333 0.0 0.0 0.00 0.00 0.00 23 1005.8
20260905234405 32 345 0.0 0.0 0.00 0.00 0.00 22 1005.8
20260905233905 33 5 0.0 0.0 0.00 0.00 0.00 22 1005.8
20260905233404 33 13 0.0 0.0 0.00 0.00 0.00 22 1005.9
20260905231904 33 14 0.0 1.6 0.00 0.00 0.00 23 1005.8
20260905231407 33 14 0.0 0.0 0.00 0.00 0.00 22 1005.8
20260905230906 33 14 0.0 0.0 0.00 0.00 0.00 23 1005.8
20260905224906 33 282 0.0 0.0 0.00 0.00 0.00 22 1005.8
20260905224404 33 282 0.0 0.0 0.00 0.00 0.00 21 1005.8
20260905223904 33 281 0.0 0.0 0.00 0.00 0.00 22 1005.8
20260905223408 33 278 0.0 3.2 0.00 0.00 0.00 23 1005.9